Location: Unspecified
(40.7945°N, 0.0000°E)
Time: 19:09:48
(UTC+00:00)

Explorer 7 - Pass Details

Date: 19 June 2021
Orbit: 484 x 676 km, 50.3° (Epoch: 28 July)

Event Time Altitude Azimuth Distance (km) Brightness Sun altitude
Rises 20:30:38 0° 226° (SW) 3,006 10.6 -9.3°
Reaches altitude 10° 20:33:00 10° 224° (SW) 2,101 9.8 -9.6°
Maximum altitude 20:37:51 67° 142° (SE) 731 7.2 -10.3°
Drops below altitude 10° 20:42:39 10° 61° (ENE) 2,085 9.6 -10.9°
Sets 20:44:59 0° 58° (ENE) 2,981 10.4 -11.2°
